Hourly Data Report for October 28, 2013

All times are specified in Local Standard Time (LST). Add 1 hour to adjust for Daylight Saving Time where and when it is observed.

ST LEONARD CS
NEW BRUNSWICK

47°09'28.050" N
67°49'55.014" W
245.00 m
810I001
71019
WIY

Download Data

Hourly Data (October 2013)
Hourly Data Report for October 28, 2013
Temp Definition
°C
Dew Point Temp Definition
°C
Rel Hum Definition
%
Wind Dir Definition
10's deg

Wind Spd Definition
km/h
Visibility Definition
km
Stn Press Definition
kPa
Hmdx Definition


Wind Chill Definition


Weather Definition


TIME
00:00 2.4 1.2 92 28 13   97.99     LegendNANA
01:00 2.0 0.9 92 27 7   98.04     LegendNANA
02:00 1.7 0.4 91 28 7   98.10     LegendNANA
03:00 1.3 0.1 92 27 6   98.09     LegendNANA
04:00 0.8 0.0 94 23 6   98.13     LegendNANA
05:00 0.7 -0.7 90 26 15   98.14     LegendNANA
06:00 -0.4 -1.0 96 25 7   98.18   -3 LegendNANA
07:00 -0.6 -1.3 95 25 9   98.19   -4 LegendNANA
08:00 -0.3 -1.7 90 27 13   98.26   -4 LegendNANA
09:00 1.7 -1.4 80 25 11   98.32     LegendNANA
10:00 1.9 -1.8 76 25 17   98.32     LegendNANA
11:00 2.2 -2.0 74 23 11   98.33     LegendNANA
12:00 0.9 0.0 94 26 13   98.35     LegendNANA
13:00 0.3 -0.4 95 28 9   98.36     LegendNANA
14:00 0.2 -0.1 98 30 7   98.44     LegendNANA
15:00 0.5 0.0 96 30 6   98.53     LegendNANA
16:00 0.7 0.0 95 29 9   98.65     LegendNANA
17:00 1.0 0.0 93 31 13   98.76     LegendNANA
18:00 0.0 -0.6 96 27 7   98.89   -2 LegendNANA
19:00 -0.3 -1.7 90 29 17   99.00   -5 LegendNANA
20:00 -0.9 -2.7 88 30 20   99.14   -6 LegendNANA
21:00 -1.6 -3.6 86 29 11   99.24   -5 LegendNANA
22:00 -2.3 -4.2 87 29 11   99.31   -6 LegendNANA
23:00 -2.7 -4.5 87 28 9   99.38   -6 LegendNANA

Notes on Data Quality.

Legend

  • E = Estimated
  • M = Missing
  • NA = Not Available
  • ‡ = Partner data that is not subject to review by the National Climate Archives
Date modified: